[[{"header":{"parameterUnit":"m.s-1","parameterCategory":1,"la1":30.2991,"la2":30.254,"lo1":-89.0895,"lo2":-89.0444,"dy":0.0017,"dx":0.0017,"nx":28,"ny":28,"refTime":"2025-11-30T03:00:00:Z","depth":0,"parameterNumber":2,"parameterNumberName":"U-component_of_WINDS"},"data":[0,0,0,0,0,0,0,0,0,0,0,0,0,0,0,0,0,0,0,0,0,0,0,0,0,0,0,0,0,0,0,0,0,0,0,0,0,0,0,0,0,0,0,0,0,0,0,0,0,0,0,0,0,0,0,0,0,0,-4.8709,-4.8709,0,-4.8721,-4.8721,-4.8721,-4.8605,-4.8601,-4.8598,-4.8595,-4.8608,-4.8611,-4.8615,0,0,0,0,0,0,0,0,0,0,0,0,0,-4.8587,-4.859,-4.8709,-4.8709,-4.8709,-4.8721,-4.8721,-4.8721,-4.8605,-4.8601,-4.8597,-4.8594,-4.8607,-4.8611,-4.8615,0,0,0,0,0,0,0,0,0,0,0,0,0,-4.8624,-4.8591,-4.8709,-4.8653,-4.8648,-4.8721,-4.8721,-4.8721,-4.8606,-4.8601,-4.8596,-4.8592,-4.8606,-4.861,-4.8615,-4.8743,0,0,-4.8631,-4.8633,0,0,0,0,0,0,0,0,-4.8622,-4.8629,-4.8661,-4.8657,-4.8652,-4.8656,-4.8683,-4.8729,-4.8607,-4.8622,-4.8595,-4.859,-4.8628,-4.8631,-4.8644,-4.8744,-4.8744,-4.8631,-4.8634,-4.8636,-4.8638,0,0,0,0,0,0,0,-4.862,-4.8627,-4.8714,-4.8662,-4.8656,-4.8628,-4.8627,-4.8691,-4.8652,-4.862,-4.8612,-4.8615,-4.8625,-4.8639,-4.8643,-4.8744,-4.8631,-4.8635,-4.8639,-4.8641,-4.8952,-4.8957,0,0,0,0,0,0,-4.8625,-4.8626,-4.8713,-4.8714,-4.8625,-4.8634,-4.8633,-4.866,-4.8651,-4.8645,-4.8619,-4.8609,-4.8633,-4.8637,-4.8643,-4.8794,-4.8636,-4.8641,-4.8644,-4.8946,-4.8953,-4.8959,0,0,0,0,0,0,-4.8622,-4.8633,-4.8713,-4.8668,-4.8676,-4.8641,-4.8671,-4.8663,-4.8677,-4.865,-4.8642,-4.8641,-4.8629,-4.8636,-4.8719,-4.8792,-4.8643,-4.8648,-4.894,-4.8948,-4.8956,-4.9095,0,0,0,0,0,0,-4.8619,-4.8633,-4.8681,-4.867,-4.8679,-4.8789,-4.8676,-4.8666,-4.8686,-4.8673,-4.8669,-4.8663,-4.8626,-4.8713,-4.8725,-4.8797,-4.8652,-4.8934,-4.8944,-4.8953,-4.9084,-4.9106,-4.9126,0,0,0,0,0,-4.8615,-4.8719,-4.8684,-4.8695,-4.8737,-4.8793,-4.8798,-4.8753,-4.8692,-4.874,-4.8723,-4.8663,-4.8782,-4.8722,-4.8734,-4.8809,-4.8929,-4.8941,-4.8952,-4.9074,-4.9102,-4.9126,0,0,0,0,0,0,-4.874,-4.8717,-4.8677,-4.8781,-4.879,-4.8774,-4.8833,-4.8784,-4.8811,-4.8798,-4.8741,-4.8741,-4.8835,-4.883,-4.8763,-4.8933,-4.8845,-4.886,-4.8933,-4.8959,-4.898,-4.898,-4.8656,0,0,0,0,0,-4.8779,-4.8826,-4.8803,-4.8897,-4.8904,-4.8868,-4.889,-4.8855,-4.8862,-4.8866,-4.8854,-4.8864,-4.8904,-4.8931,-4.8966,-4.9082,-4.908,-4.914,-4.9161,-4.9178,-4.9192,-4.9256,-4.9282,-4.8997,-4.8997,-4.8997,0,0,-4.8861,-4.8854,-4.8887,-4.8922,-4.8925,-4.8976,-4.8872,-4.8929,-4.8967,-4.8874,-4.8953,-4.8945,-4.8952,-4.9054,-4.9097,-4.9053,-4.9271,-4.9194,-4.9208,-4.9212,-4.9271,-4.9298,-4.9322,-4.9005,-4.9004,-4.9003,0,0,-4.9037,-4.9036,-4.9114,-4.912,-4.9126,-4.9102,-4.9121,-4.9112,-4.9104,-4.9182,-4.9114,-4.9158,-4.9227,-4.9235,-4.9249,-4.943,-4.9377,-4.9443,-4.9554,-4.9617,-4.9639,-4.9659,-4.9725,-4.975,-4.9457,-4.9457,-4.9457,0,-4.9138,-4.9211,-4.9161,-4.9224,-4.9242,-4.9161,-4.9241,-4.9248,-4.9266,-4.928,-4.923,-4.9316,-4.9315,-4.9418,-4.9462,-4.9475,-4.9497,-4.9444,-4.964,-4.9659,-4.9677,-4.974,-4.9765,-4.9465,-4.9464,-4.9463,-4.9463,0,-4.9336,-4.9388,-4.9451,-4.9471,-4.9496,-4.9567,-4.9528,-4.9559,-4.9522,-4.9504,-4.9585,-4.9582,-4.9615,-4.9637,-4.9601,-4.9736,-4.9708,-4.965,-4.956,-4.9713,-4.9771,-4.9795,-4.9477,-4.9474,-4.9471,-4.9469,0,0,-4.959,-4.9582,-4.9606,-4.9615,-4.9616,-4.9656,-4.9724,-4.9757,-4.9786,-4.9801,-4.9858,-4.9919,-4.9866,-4.9881,-4.9846,-4.99,-5.0047,-4.9835,-4.9835,-4.9877,-5.0198,-5.0243,-5.0271,-5.0011,-5.0016,-5.0019,-5.0198,0,-4.9762,-4.9878,-4.9836,-4.9955,-5.0004,-4.9928,-4.9988,-4.9996,-4.9981,-5.002,-5.0003,-5.0049,-4.9974,-4.9983,-5.0034,-5.0018,-5.0111,-5.0005,-5.0065,-5.0068,-5.0067,-5.0301,-5.0348,-5.0517,-5.022,-5.0224,-5.0226,0,-4.9979,-5.0004,-5.0128,-5.0123,-5.0142,-5.0196,-5.0224,-5.0263,-5.0271,-5.0256,-5.0275,-5.0228,-5.0296,-5.0206,-5.0299,-5.0228,-5.025,-5.0247,-5.0252,-5.0257,-5.0157,-5.0314,-5.0569,-5.0596,-5.0261,-5.0258,-5.0256,0,-5.0154,-5.0218,-5.0301,-5.0311,-5.0307,-5.0347,-5.0348,-5.0351,-5.0374,-5.0399,-5.0414,-5.0446,-5.0464,-5.0491,-5.0454,-5.0392,-5.0554,-5.046,-5.0545,-5.0547,-5.0583,-5.0582,-5.0848,-5.0596,-5.0595,-5.0595,-5.0594,0,-5.0352,-5.0431,-5.038,-5.0432,-5.0519,-5.047,-5.0558,-5.055,-5.0554,-5.0603,-5.0539,-5.0587,-5.0536,-5.0579,-5.0551,-5.0634,-5.0642,-5.0633,-5.0625,-5.064,-5.0641,-5.0654,-5.0643,-5.0602,-5.06,-5.0599,-5.0598,0,-5.0562,-5.0531,-5.0617,-5.0607,-5.0606,-5.0671,-5.0663,-5.071,-5.0691,-5.0755,-5.0766,-5.0737,-5.0785,-5.0751,-5.0798,-5.078,-5.0889,-5.0864,-5.0887,-5.0881,-5.0968,-5.0961,-5.1253,-5.129,-5.1013,-5.1015,-5.1018,0,-5.0691,-5.0751,-5.0748,-5.0776,-5.0781,-5.0827,-5.0851,-5.0805,-5.0833,-5.0848,-5.0894,-5.0937,-5.0968,-5.1049,-5.1032,-5.1069,-5.1045,-5.1144,-5.105,-5.1063,-5.1048,-5.1046,-5.1053,-5.1164,-5.1167,-5.117,-5.1172,0,-5.0925,-5.0907,-5.0943,-5.0976,-5.1006,-5.1029,-5.1047,-5.1074,-5.1028,-5.1063,-5.1111,-5.1136,-5.1185,-5.1229,-5.1259,-5.126,-5.121,-5.1202,-5.1224,-5.124,-5.1252,-5.1249,-5.0941,-5.1196,-5.1193,-5.1192,-5.119,-5.1189,-5.1099,-5.115,-5.1156,-5.1199,-5.1208,-5.1227,-5.1272,-5.1259,-5.1299,-5.1335,-5.1306,-5.1364,-5.1373,-5.1408,-5.1416,-5.1462,-5.1421,-5.1452,-5.146,-5.1469,-5.1483,-5.1244,-5.1467,-5.1466,-5.1465,-5.1465,-5.1464,0,-5.1331,-5.1331,-5.1372,-5.14,-5.1435,-5.1383,-5.1401,-5.1434,-5.1487,-5.1498,-5.1531,-5.1588,-5.1631,-5.1618,-5.1656,-5.1695,-5.1674,-5.1707,-5.1705,-5.1706,-5.1516,-5.1494,-5.1725,-5.1725,-5.1725,-5.1724,-5.1724,-5.1724,-5.1455,-5.1539,-5.1522,-5.1609,-5.1609,-5.1666,-5.1681,-5.1699,-5.1708,-5.1774,-5.181,-5.1801,-5.1803,-5.1842,-5.1879,-5.1874,-5.1892,-5.1935,-5.1922,-5.1745,-5.1719,-5.1695,-5.1674,-5.1939,-5.1939,-5.2109,-5.211,-5.2112]},{"header":{"parameterUnit":"m.s-1","parameterCategory":1,"la1":30.2991,"la2":30.254,"lo1":-89.0895,"lo2":-89.0444,"dy":0.0017,"dx":0.0017,"nx":28,"ny":28,"refTime":"2025-11-30T03:00:00:Z","depth":0,"parameterNumber":3,"parameterNumberName":"V-component_of_WINDS"},"data":[0,0,0,0,0,0,0,0,0,0,0,0,0,0,0,0,0,0,0,0,0,0,0,0,0,0,0,0,0,0,0,0,0,0,0,0,0,0,0,0,0,0,0,0,0,0,0,0,0,0,0,0,0,0,0,0,0,0,-3.4412,-3.4412,0,-3.4409,-3.4409,-3.4409,-3.4341,-3.4339,-3.4337,-3.4336,-3.4332,-3.4334,-3.4335,0,0,0,0,0,0,0,0,0,0,0,0,0,-3.436,-3.4361,-3.4412,-3.4412,-3.4412,-3.4409,-3.4409,-3.4409,-3.4341,-3.4339,-3.4337,-3.4335,-3.4332,-3.4333,-3.4335,0,0,0,0,0,0,0,0,0,0,0,0,0,-3.4372,-3.4361,-3.4412,-3.4378,-3.4375,-3.4409,-3.4409,-3.4409,-3.4341,-3.4339,-3.4336,-3.4334,-3.4331,-3.4333,-3.4336,-3.4402,0,0,-3.4343,-3.4344,0,0,0,0,0,0,0,0,-3.4371,-3.4374,-3.4383,-3.4381,-3.4377,-3.4372,-3.4389,-3.4406,-3.4342,-3.4354,-3.4336,-3.4332,-3.4348,-3.4348,-3.4354,-3.4402,-3.4402,-3.4343,-3.4344,-3.4345,-3.4346,0,0,0,0,0,0,0,-3.4371,-3.4374,-3.4411,-3.4383,-3.438,-3.4363,-3.4361,-3.4392,-3.4366,-3.4353,-3.4348,-3.4348,-3.4346,-3.4352,-3.4353,-3.4402,-3.4343,-3.4345,-3.4346,-3.4347,-3.4503,-3.4506,0,0,0,0,0,0,-3.4375,-3.4374,-3.4411,-3.4411,-3.4368,-3.4366,-3.4364,-3.4377,-3.4365,-3.4361,-3.4351,-3.4345,-3.4349,-3.435,-3.4353,-3.4429,-3.4345,-3.4347,-3.4349,-3.45,-3.4504,-3.4507,0,0,0,0,0,0,-3.4374,-3.4379,-3.4411,-3.4391,-3.4394,-3.4369,-3.4384,-3.4378,-3.4384,-3.4363,-3.4358,-3.4362,-3.4347,-3.4349,-3.439,-3.4428,-3.4348,-3.435,-3.4497,-3.4501,-3.4505,-3.4583,0,0,0,0,0,0,-3.4373,-3.4379,-3.4404,-3.4392,-3.4395,-3.4449,-3.4386,-3.438,-3.4388,-3.4381,-3.4372,-3.4369,-3.4345,-3.4387,-3.4392,-3.443,-3.4352,-3.4494,-3.4499,-3.4504,-3.4577,-3.4589,-3.46,0,0,0,0,0,-3.4371,-3.4427,-3.4406,-3.4411,-3.4426,-3.4452,-3.4453,-3.4425,-3.4391,-3.4416,-3.4403,-3.4369,-3.4423,-3.4392,-3.4397,-3.4436,-3.4491,-3.4497,-3.4504,-3.4572,-3.4587,-3.46,0,0,0,0,0,0,-3.4444,-3.4424,-3.4401,-3.4454,-3.4455,-3.444,-3.4471,-3.4442,-3.4452,-3.4445,-3.441,-3.4409,-3.4455,-3.4449,-3.4415,-3.4499,-3.4451,-3.4459,-3.4501,-3.4515,-3.4526,-3.4527,-3.4354,0,0,0,0,0,-3.4467,-3.4489,-3.447,-3.4519,-3.452,-3.4496,-3.4506,-3.4484,-3.4483,-3.4483,-3.4473,-3.4473,-3.449,-3.4502,-3.4517,-3.4576,-3.4573,-3.4605,-3.4616,-3.4626,-3.4633,-3.4663,-3.4677,-3.4527,-3.4527,-3.4527,0,0,-3.4513,-3.4505,-3.4521,-3.4533,-3.4531,-3.4555,-3.4497,-3.4524,-3.4541,-3.4487,-3.4525,-3.4517,-3.4516,-3.4565,-3.4587,-3.4562,-3.4674,-3.4634,-3.4642,-3.4643,-3.4671,-3.4685,-3.4698,-3.4531,-3.4531,-3.453,0,0,-3.461,-3.4606,-3.4646,-3.4645,-3.4642,-3.4625,-3.4635,-3.4624,-3.4616,-3.4653,-3.4613,-3.4633,-3.4663,-3.4663,-3.4667,-3.4763,-3.4731,-3.4768,-3.4828,-3.4858,-3.487,-3.488,-3.4914,-3.4926,-3.4775,-3.4775,-3.4776,0,-3.4668,-3.4702,-3.467,-3.47,-3.4706,-3.4658,-3.4698,-3.4698,-3.4701,-3.4706,-3.4678,-3.4714,-3.471,-3.4759,-3.4782,-3.4787,-3.4796,-3.4769,-3.4871,-3.4881,-3.489,-3.4922,-3.4934,-3.478,-3.4779,-3.4779,-3.4779,0,-3.4774,-3.4798,-3.483,-3.4833,-3.4843,-3.4878,-3.4851,-3.4864,-3.4841,-3.4827,-3.4865,-3.4857,-3.4869,-3.4879,-3.4857,-3.4925,-3.4909,-3.4877,-3.4828,-3.4909,-3.4938,-3.495,-3.4786,-3.4785,-3.4783,-3.4782,0,0,-3.4918,-3.4901,-3.4914,-3.4914,-3.4907,-3.4925,-3.4957,-3.4968,-3.498,-3.4983,-3.5009,-3.5035,-3.5005,-3.5009,-3.4987,-3.5013,-3.5088,-3.4977,-3.4976,-3.4998,-3.5162,-3.5187,-3.5201,-3.5067,-3.5069,-3.5071,-3.5162,0,-3.5011,-3.5065,-3.5036,-3.5094,-3.5116,-3.5069,-3.5097,-3.5095,-3.5083,-3.5099,-3.5084,-3.5104,-3.5062,-3.5064,-3.5088,-3.5074,-3.5121,-3.5067,-3.5091,-3.5092,-3.5093,-3.5217,-3.5243,-3.5329,-3.5173,-3.5175,-3.5177,0,-3.5127,-3.5135,-3.5194,-3.5182,-3.519,-3.5216,-3.5223,-3.5239,-3.5236,-3.5224,-3.5229,-3.52,-3.523,-3.5182,-3.5223,-3.5187,-3.5195,-3.5189,-3.5192,-3.5193,-3.514,-3.5221,-3.5356,-3.5369,-3.5194,-3.5193,-3.5192,0,-3.5226,-3.5251,-3.5289,-3.5291,-3.5278,-3.5297,-3.5292,-3.5286,-3.5294,-3.5301,-3.5306,-3.5316,-3.5321,-3.533,-3.5304,-3.5271,-3.5349,-3.5298,-3.534,-3.5341,-3.5359,-3.5358,-3.5497,-3.5364,-3.5364,-3.5364,-3.5363,0,-3.5334,-3.5372,-3.5333,-3.5357,-3.5399,-3.5365,-3.5407,-3.5397,-3.5392,-3.5413,-3.5373,-3.5394,-3.5358,-3.5375,-3.5355,-3.5392,-3.5395,-3.5387,-3.5381,-3.5391,-3.5392,-3.5395,-3.5389,-3.5367,-3.5366,-3.5366,-3.5365,0,-3.5452,-3.5427,-3.5466,-3.545,-3.5446,-3.5478,-3.5463,-3.5485,-3.5469,-3.5496,-3.55,-3.5475,-3.5493,-3.5468,-3.5483,-3.5469,-3.552,-3.5505,-3.5521,-3.5517,-3.5561,-3.5557,-3.5707,-3.5725,-3.558,-3.5582,-3.5583,0,-3.5522,-3.555,-3.5536,-3.5547,-3.5544,-3.5563,-3.557,-3.5538,-3.5548,-3.5546,-3.5567,-3.5581,-3.5591,-3.5622,-3.5605,-3.5616,-3.5601,-3.5653,-3.5603,-3.5611,-3.5602,-3.5601,-3.5603,-3.5664,-3.5665,-3.5667,-3.5668,0,-3.5649,-3.5635,-3.5648,-3.5656,-3.5666,-3.5671,-3.5673,-3.5684,-3.565,-3.5663,-3.568,-3.5688,-3.5703,-3.5717,-3.5724,-3.5719,-3.5688,-3.5684,-3.5694,-3.5704,-3.5712,-3.5708,-3.5549,-3.5681,-3.5679,-3.5678,-3.5678,-3.5677,-3.5745,-3.5767,-3.5761,-3.5776,-3.5774,-3.5776,-3.5795,-3.5781,-3.5795,-3.5804,-3.5784,-3.5806,-3.5801,-3.5807,-3.5805,-3.5822,-3.58,-3.5815,-3.5819,-3.5823,-3.583,-3.5709,-3.5823,-3.5823,-3.5823,-3.5822,-3.5822,0,-3.587,-3.5863,-3.5877,-3.588,-3.5892,-3.5861,-3.5861,-3.5873,-3.5893,-3.5891,-3.5901,-3.592,-3.5934,-3.5918,-3.5929,-3.5945,-3.5931,-3.5949,-3.5948,-3.5947,-3.5849,-3.5839,-3.5961,-3.5961,-3.596,-3.596,-3.596,-3.596,-3.5936,-3.5972,-3.5957,-3.5992,-3.5985,-3.6005,-3.6008,-3.601,-3.6008,-3.6032,-3.6043,-3.6032,-3.6024,-3.6034,-3.6045,-3.604,-3.6046,-3.6069,-3.6059,-3.5968,-3.5954,-3.5941,-3.5932,-3.607,-3.607,-3.6155,-3.6156,-3.6157]}]]